Location: ???????
(53.3197°N, 59.0741°E)
Time: 08:48:00
(UTC+00:00)

Daily predictions for brighter satellites

Satellite Brightness Start Highest point End
(mag) Time Altitude Azimuth Time Altitude Azimuth Time Altitude Azimuth
Unknown 3.7 13:19:30 10° WSW 13:23:39 81° S 13:27:48 10° E
Meteor 1-16 Rocket 4.3 13:18:58 10° SSE 13:24:13 49° E 13:29:22 10° NNE
Unknown 3.7 13:21:08 10° WSW 13:25:17 81° S 13:29:27 10° E
Cosmos 1626 4.3 13:22:08 10° NNW 13:25:29 32° W 13:28:49 10° SSW
Gbstr 26 Del rocket 4.5 13:20:07 10° W 13:25:34 57° SSW 13:32:17 10° SE
Cosmos 2278 Rocket 3.0 13:20:45 10° SSE 13:25:38 30° ESE 13:30:32 10° NE
Unknown 3.4 13:22:05 10° W 13:25:50 82° S 13:29:34 10° ESE
SMAP 3.3 13:21:51 10° SSE 13:26:31 80° WSW 13:31:12 10° NNW
Unknown 3.7 13:22:48 10° WSW 13:26:58 82° S 13:31:07 10° E
Cosmos 1356 4.0 13:24:43 10° SSE 13:27:52 35° E 13:31:04 10° NNE
Unknown 3.7 13:24:26 10° WSW 13:28:36 82° S 13:32:46 10° E
Cosmos 1726 2.5 13:27:59 10° SSE 13:31:24 40° E 13:34:51 10° NNE
Cosmos 1844 3.8 13:27:20 10° SSW 13:33:05 86° ESE 13:38:56 10° NNE
Cosmos 1461 3.0 13:29:37 10° NW 13:33:42 81° SW 13:37:53 10° SE
Meteor 1-11 4.3 13:28:21 10° N 13:34:07 64° ENE 13:39:52 10° SSE
Meteor 2-10 4.2 13:29:22 10° SSE 13:34:10 46° E 13:38:59 10° NNE
Unknown 3.7 13:31:07 10° W 13:35:17 84° S 13:39:27 10° E
CSL-04 Rocket 4.0 13:31:29 10° SE 13:36:42 45° ENE 13:41:53 10° N
Unknown 3.6 13:32:48 10° W 13:36:58 84° S 13:41:07 10° E
FengYun 1-2 T 4.4 13:32:30 10° SE 13:37:59 57° ENE 13:43:27 10° N
Unknown 3.6 13:34:26 10° W 13:38:36 85° S 13:42:42 10° E
CZ-4 R/B 1.8 13:35:51 10° SE 13:39:53 47° ENE 13:43:58 10° N
Cosmos 1908 3.8 13:36:31 10° SSE 13:40:05 35° E 13:43:39 10° NNE
Unknown 3.6 13:36:05 10° W 13:40:15 85° S 13:44:16 11° E
Cosmos 2263 Rocket 3.9 13:35:34 10° W 13:40:24 28° NW 13:45:15 10° NNE
ATLAS CENTAUR R/B 3.3 13:37:09 10° NW 13:40:46 21° N 13:44:13 10° ENE
Unknown 4.1 13:37:24 10° W 13:40:47 47° SSW 13:44:10 10° SE
Unknown 3.6 13:37:43 10° W 13:41:54 85° S 13:45:51 11° E
BREEZE M DEB (TANK) 3.5 13:41:10 10° WSW 13:43:02 24° S 13:46:06 10° SE
Unknown 3.6 13:41:04 10° W 13:45:13 86° S 13:49:04 12° E
Starlink (trailer) 3.6 13:42:42 10° W 13:46:52 86° S 13:50:38 12° E
SJ 16-02 2.7 13:43:37 10° N 13:46:59 21° NE 13:49:57 12° E
Ariane Rocket 3.8 13:42:57 10° ESE 13:47:20 30° ENE 13:51:44 10° N
Cosmos 2058 Rocket 3.0 13:43:54 10° S 13:48:12 67° E 13:52:33 10° NNE
Unknown 3.6 13:44:25 10° W 13:48:35 87° S 13:52:16 13° E
Cosmos 1992 Rocket 4.5 13:43:50 10° SW 13:49:01 64° WNW 13:54:14 10° NNE
Abrixas rocket 3.7 13:46:51 10° SW 13:49:18 22° SSE 13:51:32 11° ESE
Cosmos 2084 Rocket 3.5 13:44:57 10° NW 13:49:25 81° NE 13:53:50 10° SE
BREEZE-M DEB (TANK) 4.0 13:45:58 10° W 13:50:01 58° SSW 13:59:45 10° ESE
Unknown 3.6 13:46:04 10° W 13:50:14 87° S 13:53:52 13° E
Cosmos 1833 Rocket 2.8 13:46:48 10° NNW 13:52:28 86° WSW 13:58:06 10° SSE
Unknown 3.6 13:51:05 10° W 13:55:15 87° S 13:58:41 15° E
Cosmos 1953 3.5 13:52:43 10° SSW 13:56:39 47° WNW 14:00:37 10° N
Unknown 3.6 13:52:42 10° W 13:56:52 87° S 14:00:14 15° E
Cosmos 1937 Rocket 4.3 13:53:03 10° NNW 13:57:36 30° NE 14:01:37 12° ESE
COSMO-SKYMED 1 2.9 13:53:45 10° NNE 13:57:57 44° E 14:02:06 10° S
Unknown 3.6 13:54:25 10° W 13:58:35 88° S 14:01:53 16° E
YAOGAN 6 2.5 13:56:08 10° SSE 13:59:44 65° ENE 14:03:19 10° N
Unknown 3.6 13:55:59 10° W 14:00:11 88° S 14:03:27 16° E
Unknown 3.6 13:57:42 10° W 14:01:52 88° S 14:05:02 17° E
ASTEX 1 3.4 13:57:35 10° N 14:02:34 72° E 14:07:33 10° S
Unknown 3.5 13:59:25 10° W 14:03:15 77° SSW 14:06:13 16° ESE
Unknown 3.6 13:59:28 10° W 14:03:38 88° S 14:06:44 17° E
Cosmos 1605 Rocket 3.9 13:57:52 10° N 14:04:07 84° E 14:10:14 10° SSE
Cosmos 1934 Rocket 4.4 13:58:59 10° NNW 14:05:18 70° W 14:11:38 10° S
Cosmos 1892 4.1 14:03:50 10° NNE 14:06:33 18° ENE 14:07:09 18° ENE
Unknown 3.6 14:02:47 10° W 14:06:57 88° S 14:09:56 19° E
Unknown 3.6 14:02:48 10° W 14:06:58 88° S 14:09:56 19° E
Unknown 3.6 14:04:20 10° W 14:08:30 88° S 14:11:25 19° E
HJ-1C 4.5 14:10:21 20° E 14:11:36 25° ENE 14:14:25 10° N
Unknown 3.6 14:07:35 10° W 14:11:46 88° S 14:14:32 20° E
Lacrosse 5 2.7 14:07:24 10° WNW 14:12:17 49° SW 14:17:09 10° SE
ATLAS 3B R/B 3.8 14:09:04 10° SSE 14:13:37 20° ESE 14:15:35 17° E
Okean-O 4.0 14:09:36 10° S 14:13:50 43° W 14:18:05 10° NNW
Unknown 3.6 14:11:00 10° W 14:15:10 88° S 14:17:49 22° E
Unknown 3.6 14:12:40 10° W 14:16:50 88° S 14:19:24 23° E
Unknown 3.6 14:14:20 10° W 14:18:30 87° S 14:21:01 23° E
Cosmos 2227 Rocket 4.4 14:16:42 10° NNW 14:19:18 13° N 14:21:53 10° NNE
Cosmos 1076 Rocket 3.5 14:15:22 10° N 14:19:43 59° ENE 14:24:00 10° SSE
Unknown 3.6 14:16:01 10° W 14:20:11 87° S 14:22:38 24° E
CENTAUR R/B 3.6 14:16:01 10° SSE 14:20:32 22° ESE 14:22:28 19° E
Cosmos 2173 Rocket 4.2 14:14:53 10° N 14:20:59 49° ENE 14:26:57 10° SSE
Cosmos 1727 Rocket 4.0 14:15:36 10° SSE 14:21:36 56° E 14:27:37 10° NNE
SKYMED 3 4.5 14:17:37 10° NNE 14:22:00 74° ESE 14:26:20 10° S
Cosmos 2058 3.1 14:19:08 10° N 14:23:15 48° ENE 14:27:19 10° SSE
Unknown 3.6 14:19:21 10° W 14:23:31 87° S 14:25:50 26° E
Cosmos 2297 Rocket 4.3 14:21:33 10° NNW 14:24:08 13° N 14:26:43 10° NNE
Cosmos 2082 Rocket 2.5 14:19:30 10° NW 14:25:14 73° WSW 14:30:53 10° SSE
Unknown 3.6 14:21:03 10° W 14:25:14 86° S 14:27:29 26° E
CSL-04 Debris 4.3 14:20:43 10° SSE 14:26:12 84° WSW 14:31:44 10° NNW
Okean 3 Rocket 4.1 14:22:18 10° N 14:26:32 37° ENE 14:29:22 18° SE
Unknown 3.6 14:22:38 10° W 14:26:49 87° S 14:28:59 27° E
Unknown 3.6 14:24:07 10° W 14:28:00 71° SSW 14:30:03 26° ESE
Unknown 3.6 14:24:15 10° W 14:28:25 86° S 14:30:32 28° E
IRS-1A Rocket 4.3 14:23:28 10° SE 14:28:49 54° ENE 14:34:12 10° N
Cosmos 1300 3.0 14:25:35 10° SSE 14:29:10 41° E 14:32:48 10° NNE
Unknown 3.6 14:25:59 10° W 14:30:08 86° S 14:32:12 29° E
Unknown 3.6 14:27:28 10° W 14:31:37 87° S 14:33:37 30° E
Cosmos 1802 Rocket 4.2 14:25:45 10° N 14:32:02 50° ENE 14:38:13 10° SSE
Unknown 3.6 14:30:46 10° W 14:34:56 86° S 14:36:47 32° E
Cosmos 1844 Rocket 4.1 14:30:15 10° WSW 14:35:28 37° NW 14:40:41 10° NNE
Resurs 01 Rocket 3.5 14:37:03 14° NE 14:37:03 14° NE 14:38:46 10° NNE
SPOT 3 Rocket 4.3 14:34:38 25° E 14:36:29 32° ENE 14:41:05 10° N
Unknown 3.5 14:32:26 10° W 14:36:36 86° S 14:38:23 33° E
CZ-2D R/B 3.1 14:33:51 10° SSE 14:37:43 78° ENE 14:41:38 10° NNW
Unknown 3.6 14:34:18 10° W 14:38:28 84° S 14:40:11 34° ESE
Cosmos 2151 3.5 14:34:49 10° N 14:38:52 37° ENE 14:40:00 31° ESE
Cosmos 1812 Rocket 3.5 14:34:46 10° S 14:39:11 69° E 14:43:40 10° NNE
Unknown 3.5 14:35:48 10° W 14:39:58 85° S 14:41:37 35° E
SL-27 R/B 3.3 14:37:41 10° N 14:40:20 30° NE 14:40:20 30° NE
Unknown 3.5 14:37:25 10° W 14:41:35 85° S 14:43:11 37° E
Cosmos 1939 Rocket 2.8 14:38:02 10° SSE 14:42:03 79° ENE 14:46:11 10° NNW
Envisat 4.4 14:38:47 10° SSW 14:43:34 40° W 14:48:22 10° NNW
Cosmos 1725 Rocket 4.3 14:38:18 10° N 14:44:17 43° ENE 14:48:05 21° SE
Unknown 3.5 14:40:41 10° W 14:44:45 77° SSW 14:46:10 39° ESE
Unknown 3.5 14:40:47 10° W 14:44:57 84° S 14:46:24 39° ESE
SKYMED 2 3.9 14:41:45 10° N 14:46:06 69° WNW 14:50:24 10° SSW
Unknown 3.5 14:42:23 10° W 14:46:33 84° S 14:47:57 41° ESE
Cosmos 1408 4.5 14:44:30 10° NNE 14:45:56 18° NNE 14:45:56 18° NNE
In-Cosmos 22 Rocket 4.0 14:42:39 10° N 14:48:04 72° ENE 14:53:35 10° SSE
Unknown 3.5 14:44:05 10° W 14:48:15 83° S 14:49:34 42° ESE
USA 238 DEB 3.7 14:42:22 10° SSW 14:49:00 65° SE 14:54:31 17° NE
USA 238 3.7 14:42:29 10° SSW 14:49:07 64° SE 14:54:34 17° NE
Cosmos 1898 Rocket 3.4 14:44:22 10° NNW 14:49:41 82° ENE 14:54:00 16° SSE
YAOGAN 1 3.4 14:45:28 10° S 14:49:42 51° W 14:53:57 10° NNW
Unknown 3.5 14:45:46 10° W 14:49:55 83° S 14:51:11 44° ESE
Cosmos 2100 Rocket 3.9 14:43:44 10° N 14:49:58 79° ENE 14:56:07 10° SSE
Cosmos 44 3.7 14:46:42 10° S 14:51:09 36° ESE 14:51:26 36° ESE
H-2A R/B 2.7 14:50:34 32° E 14:51:57 37° ENE 14:56:56 10° N
Unknown 3.5 14:49:07 10° W 14:53:16 82° SSW 14:54:25 47° ESE
ATLAS 5 CENTAUR R/B 3.2 14:49:40 10° W 14:53:53 31° NNW 14:57:22 16° NE
Unknown 3.5 14:49:56 10° W 14:54:02 79° S 14:55:06 48° ESE
Unknown 3.5 14:50:06 10° W 14:54:15 81° S 14:55:21 48° ESE
Meteor 2-1 Rocket 4.2 14:49:01 10° S 14:54:22 54° E 14:59:50 10° NNE
Unknown 3.6 14:50:51 10° W 14:55:01 79° S 14:56:05 48° ESE
Unknown 3.6 14:52:37 10° W 14:56:48 79° S 14:57:48 50° ESE
Unknown 3.5 14:55:46 10° W 14:59:56 80° S 15:00:48 54° ESE
Unknown 3.6 14:59:05 10° W 15:03:14 78° SSW 15:03:59 58° ESE
Unknown 4.4 15:00:11 10° W 15:03:39 37° SSW 15:04:32 32° S
Unknown 3.6 15:00:43 10° W 15:04:53 78° S 15:05:34 60° ESE
Cosmos 2016 Rocket 3.9 14:59:49 10° N 15:06:06 70° ENE 15:11:50 13° SSE
Unknown 3.5 15:02:24 10° W 15:06:33 77° SSW 15:07:10 62° SE
USA 116 3.9 15:04:24 10° N 15:07:33 55° WNW 15:10:55 10° SSW
Unknown 3.5 15:04:02 10° W 15:08:11 77° SSW 15:08:44 63° SE
DMSP B5D1-3 4.4 15:03:29 10° NNE 15:08:39 85° ESE 15:13:49 10° SSW
Cosmos 2278 Rocket 2.7 15:03:46 10° SW 15:09:24 62° NW 15:15:04 10° NNE
NOSS 3-2 (A) 3.4 15:05:38 10° SW 15:11:30 72° SE 15:15:24 26° NE
Cosmos 1125 Rocket 4.4 15:08:47 10° NNW 15:13:25 31° NE 15:13:25 31° NE
Cosmos 2297 3.7 15:08:36 10° SSW 15:14:13 62° ESE 15:17:31 25° NE
Unknown 3.5 15:10:43 10° W 15:14:51 74° SSW 15:15:09 70° SSE
SL-08 R/B 4.3 15:08:44 10° N 15:14:52 68° ENE 15:18:16 27° SSE
CZ-4 R/B 3.9 15:11:40 10° SSW 15:15:07 24° W 15:18:37 10° NW
Unknown 3.5 15:12:23 10° W 15:16:32 73° SSW 15:16:46 70° SSE
Unknown 3.5 15:14:02 10° W 15:18:10 72° SSW 15:18:21 71° S
Unknown 3.6 15:15:41 10° W 15:19:49 72° SSW 15:19:55 71° S
ATLAS CENTAUR R/B 2.2 15:16:30 10° NW 15:20:43 40° NNE 15:20:43 40° NNE
Unknown 3.6 15:17:19 10° W 15:21:28 71° SSW 15:21:30 71° S
ARGOS 3.2 15:23:29 54° E 15:24:07 58° ENE 15:29:28 10° N
Abrixas rocket 4.2 15:21:56 10° WSW 15:23:22 22° SW 15:23:22 22° SW
Unknown 3.7 15:20:40 10° W 15:24:43 69° SSW 15:24:43 69° SSW
Ariane Rocket 3.7 15:21:04 10° S 15:26:04 54° W 15:31:06 10° NNW
SJ 16-02 1.5 15:21:41 10° NNW 15:26:04 71° WSW 15:26:59 52° S
ADEOS Rocket 3.6 15:18:47 10° NNE 15:26:11 48° E 15:29:48 28° SSE
Starlink (trailer) 3.7 15:22:18 10° W 15:26:17 68° SSW 15:26:17 68° SSW
Unknown 3.8 15:24:01 10° W 15:27:55 66° SW 15:27:55 66° SW
SJ-6B 3.8 15:30:51 36° N 15:30:51 36° N 15:33:10 10° NNW
Unknown 3.8 15:25:40 10° W 15:29:31 65° SW 15:29:31 65° SW
Cosmos 468 Rocket 3.8 15:25:49 10° SSW 15:31:03 70° ESE 15:31:38 64° ENE
Unknown 4.0 15:30:41 10° W 15:34:20 58° SW 15:34:20 58° SW
Unknown 4.1 15:32:18 10° W 15:35:53 57° WSW 15:35:53 57° WSW
Cosmos 1825 4.3 15:32:43 10° N 15:33:52 18° N 15:33:52 18° N
Cosmos 2150 Rocket 3.9 15:31:05 10° NNW 15:36:32 69° ENE 15:36:43 68° ENE
NOSS 3-2 (C) 3.3 15:31:58 10° SW 15:37:51 72° SE 15:39:31 51° ENE
Unknown 4.1 15:34:01 10° W 15:37:32 55° WSW 15:37:32 55° WSW
Unknown 4.2 15:35:36 10° W 15:39:06 54° WSW 15:39:06 54° WSW
Cosmos 1937 Rocket 3.9 15:34:51 10° NNW 15:39:54 58° WSW 15:41:49 35° S
Timation 2 Rocket 4.4 15:34:20 10° NNW 15:40:00 41° NE 15:40:04 41° NE
Unknown 4.3 15:37:18 10° W 15:40:41 51° WSW 15:40:41 51° WSW
Cosmos 1892 3.6 15:38:52 10° NNW 15:42:10 48° WNW 15:42:10 48° WNW
Unknown 4.4 15:39:04 10° W 15:42:23 49° WSW 15:42:23 49° WSW
Cosmos 2061 Rocket 4.3 15:37:48 10° NNW 15:44:00 67° W 15:49:47 12° S
Unknown 4.5 15:42:23 10° W 15:45:35 46° WSW 15:45:35 46° WSW
Unknown 4.5 15:42:24 10° W 15:45:35 46° WSW 15:45:35 46° WSW
Cosmos 1833 4.3 15:43:31 10° NNW 15:48:44 58° NE 15:48:44 58° NE
CZ-2C R/B 3.3 15:51:02 66° NE 15:51:02 66° NE 15:56:26 10° N
Cosmos 1766 Rocket 4.3 15:47:18 10° NNW 15:51:30 50° W 15:51:58 47° WSW
Meteor 2-3 Rocket 3.8 15:45:57 10° N 15:51:09 61° NE 15:51:09 61° NE
Lacrosse 5 4.5 15:52:05 10° W 15:54:15 13° WSW 15:56:26 10° SSW
Cosmos 1238 Rocket 3.9 15:49:27 10° N 15:56:08 72° ENE 15:56:10 72° ENE
Cosmos 372 Rocket 4.2 15:57:36 10° NNW 16:02:02 66° NW 16:02:02 66° NW
ATLAS 3B R/B 2.5 15:56:36 10° SW 16:02:54 71° SSE 16:02:54 71° SSE
Cosmos 2227 Rocket 4.0 16:01:32 10° NNW 16:05:14 20° NNE 16:05:14 20° NNE
Cosmos 2298 Rocket 4.2 16:01:10 10° NNW 16:06:12 69° W 16:06:12 69° W
CENTAUR R/B 2.5 16:03:51 10° SW 16:09:44 78° S 16:09:44 78° S
Cosmos 2297 Rocket 3.9 16:06:10 10° NNW 16:09:43 21° NNE 16:09:43 21° NNE
Resurs 01 Rocket 3.4 16:14:37 26° N 16:14:37 26° N 16:16:35 10° NNW
SPOT 3 Rocket 4.2 16:15:18 50° WSW 16:15:43 51° W 16:20:49 10° NNW
Cosmos 2123 Rocket 4.3 16:17:34 10° SSW 16:23:49 64° WNW 16:30:03 10° N
Cosmos 2233 Rocket 4.2 16:21:30 10° NNW 16:27:44 65° W 16:28:12 63° WSW
H-2A R/B 3.0 16:31:12 45° W 16:31:18 45° W 16:36:33 10° NNW
Terra 4.5 16:40:16 11° N 16:40:16 11° N 16:40:32 10° N
ATLAS 5 CENTAUR R/B 3.7 16:35:28 10° NW 16:38:54 27° N 16:38:54 27° N
USA 238 DEB 4.3 16:33:38 10° WSW 16:40:16 52° NNW 16:41:57 43° NNE
USA 238 4.3 16:33:44 10° WSW 16:40:21 52° NNW 16:42:01 43° NNE
Cosmos 2278 Rocket 4.4 16:50:25 10° WNW 16:54:40 21° NNW 16:58:13 12° NNE
ATLAS CENTAUR R/B 4.2 16:55:38 10° NW 16:56:54 18° WNW 16:56:54 18° WNW
NOSS 3-2 (A) 4.4 16:56:50 10° W 17:02:49 47° NNW 17:02:49 47° NNW
SJ 16-02 4.4 17:03:23 10° W 17:03:47 10° W 17:04:01 10° W
ADEOS Rocket 4.1 17:04:20 10° N 17:11:44 51° WNW 17:16:40 20° SW
Cosmos 2227 Rocket 4.5 17:45:21 10° NNW 17:47:02 20° NNW 17:47:02 20° NNW
CENTAUR R/B 4.1 21:49:21 36° E 21:49:21 36° E 21:54:15 10° ESE
ATLAS 2AS CENTAUR R/B 4.2 22:15:49 33° ESE 22:16:17 33° ESE 22:23:12 10° NE
Cosmos 2333 Rocket 3.6 22:33:53 34° ENE 22:33:53 34° ENE 22:37:36 10° NE
Resurs 1-4 Rocket 4.1 22:29:50 10° N 22:31:35 21° N 22:31:35 21° N
Cosmos 2219 Rocket 3.4 22:42:37 38° ENE 22:42:37 38° ENE 22:46:22 10° NE
SL-16 R/B 3.8 22:44:10 27° N 22:44:10 27° N 22:47:02 10° NNE
ATLAS 5 CENTAUR R/B 3.9 22:45:18 40° NNE 22:45:18 40° NNE 22:55:08 10° E
ADEOS II 3.4 22:50:14 10° NNE 22:53:14 35° NNE 22:53:14 35° NNE
Cosmos 2237 Rocket 3.7 22:56:20 28° ESE 22:57:07 29° ESE 23:01:59 10° NE
Cosmos 2369 Rocket 4.3 23:00:52 11° NNW 23:05:01 23° NNE 23:09:24 10° E
Cosmos 2322 Rocket 3.7 23:11:14 27° N 23:11:14 27° N 23:14:32 10° NNE
Cosmos 1709 Rocket 4.0 23:12:15 77° NE 23:12:15 77° NE 23:18:13 10° NNE
Cosmos 2251 Rocket 4.5 23:14:46 43° NNE 23:14:46 43° NNE 23:18:22 10° NNE
Lacrosse 4 Rocket 4.2 23:16:43 12° N 23:16:43 12° N 23:17:15 10° NNE
Cosmos 2360 Rocket 3.2 23:17:54 37° N 23:17:54 37° N 23:21:45 10° NNE
IDEFIX/ARIANE 42P 3.9 23:14:48 10° NNE 23:19:39 36° E 23:22:01 24° SE
Aureole 1 Rocket 4.4 23:22:32 40° NNE 23:22:32 40° NNE 23:25:11 10° NNE
COSMOS 2428 2.9 23:23:52 68° NNE 23:23:52 68° NNE 23:28:50 10° NNE
Cosmos 2098 Rocket 4.5 23:24:17 58° NW 23:24:17 58° NW 23:30:21 10° N
Cosmos 1980 Rocket 4.2 23:23:42 17° NNW 23:23:42 17° NNW 23:27:15 10° NNE
USA 234 3.1 23:17:51 10° ESE 23:24:25 82° SSW 23:24:40 81° WSW
Cosmos 1943 Rocket 3.9 23:19:33 10° NNW 23:24:30 29° NE 23:29:26 10° E
NOSS 3-4 (A) 4.2 23:25:04 40° SSE 23:26:19 45° ESE 23:32:23 10° NE
CZ-2D R/B 4.0 23:21:54 10° N 23:23:43 19° NNW 23:23:43 19° NNW
NOSS 3-4 (C) 4.2 23:25:07 39° SSE 23:26:25 45° ESE 23:32:30 10° NE
Cosmos 407 Rocket 4.4 23:26:31 41° SE 23:27:13 43° ESE 23:32:03 10° NE
ATLAS 3B R/B 3.1 23:31:30 46° S 23:31:30 46° S 23:36:19 10° SSE
COSMOS 2455 3.1 23:31:07 57° NNW 23:31:07 57° NNW 23:36:34 10° NE
CENTAUR R/B 3.1 23:36:38 59° WSW 23:36:49 59° SW 23:45:13 10° SSE
Cosmos 44 Rocket 3.7 23:45:48 53° SE 23:45:48 53° SE 23:49:23 10° SE
Cosmos 1707 3.8 23:48:16 42° E 23:48:22 42° E 23:52:06 10° NNE
Cosmos 2074 Rocket 4.2 23:46:18 18° S 23:51:04 70° E 23:57:16 10° NNE
SL-16 R/B 3.9 23:48:17 10° SSE 23:53:11 31° ESE 23:58:06 10° NE
Cosmos 614 Rocket 4.2 23:52:22 51° S 23:53:33 68° ESE 23:58:43 10° NNE
ARIANE 5 R/B 3.6 23:49:23 10° N 23:52:23 31° NNW 23:52:23 31° NNW
